Weather History for West Palm Beach, FL

Change the Weather History Date:

Sunday, August 31, 2014

  Actual Average Record
Temperature  
Mean Temperature 86 °F 82 °F  
Max Temperature 91 °F 89 °F 95 °F (1998)
Min Temperature 81 °F 76 °F 70 °F (1984)
Degree Days  
Heating Degree Days 0 0  
Month to date heating degree days 0 0  
Since 1 June heating degree days 0 0  
Since 1 July heating degree days 0 0  
Cooling Degree Days 21 17  
Month to date cooling degree days 604 558  
Year to date cooling degree days 3008 2706  
Since 1 June cooling degree days 1656 1597  
Growing Degree Days 36 (Base 50)    
Moisture  
Dew Point 75 °F    
Average Humidity 74    
Maximum Humidity 85    
Minimum Humidity 63    
Precipitation  
Precipitation T in 0.28 in 1.92 in (1973)
Month to date precipitation 9.71 7.95  
Year to date precipitation 43.14 40.72  
Snow  
Snow 0.00 in - - ()
Month to date snowfall 0.0  
Since 1 June snowfall 0.0  
Since 1 July snowfall 0.0  
Snow Depth 0.00 in    
Sea Level Pressure  
Sea Level Pressure 30.09 in    
Wind  
Wind Speed 10 mph (ESE)    
Max Wind Speed 17 mph    
Max Gust Speed 23 mph    
Visibility 10 miles    
Events Rain    
T = Trace of Precipitation, MM = Missing Value Source: NWS Daily Summary

Daily Weather History Graph

Daily Weather History Graph

Search for Another Location

Airport:

Trip Planner

Search our weather history database for the weather conditions in past years. The results will help you decide how hot, cold, wet, or windy it might be!

Date:

Astronomy

Aug. 31, 2014 Rise Set
Actual Time 6:59 AM EDT 7:41 PM EDT
Civil Twilight 6:35 AM EDT 8:04 PM EDT
Nautical Twilight 6:08 AM EDT 8:32 PM EDT
Astronomical Twilight 5:39 AM EDT 9:00 PM EDT
Moon 12:10 PM EDT (8/31) 11:30 PM EDT (8/31)
Length of Visible Light 13h 28m
Length of Day
12h 41m
Waxing Crescent, 32% of the Moon is Illuminated
Aug 31
Waxing Crescent
Sep 2
First Quarter
Sep 8
Full
Sep 15
Last Quarter
Sep 24
New

Hourly Weather History & Observations

Time (EDT) Temp. Heat Index Dew Point Humidity Pressure Visibility Wind Dir Wind Speed Gust Speed Precip Events Conditions
12:53 AM 84.0 °F 91.2 °F 73.9 °F 72% 30.11 in 10.0 mi SE 8.1 mph - N/A   Scattered Clouds
1:53 AM 82.9 °F 90.2 °F 75.0 °F 77% 30.10 in 10.0 mi SE 6.9 mph - N/A   Partly Cloudy
2:53 AM 82.9 °F 90.8 °F 75.9 °F 79% 30.09 in 10.0 mi ESE 5.8 mph - N/A   Scattered Clouds
3:53 AM 84.0 °F 91.9 °F 75.0 °F 74% 30.08 in 10.0 mi East 8.1 mph - N/A   Partly Cloudy
4:53 AM 82.9 °F 90.2 °F 75.0 °F 77% 30.08 in 10.0 mi ESE 5.8 mph - N/A   Scattered Clouds
5:37 AM 81.0 °F 86.2 °F 73.9 °F 79% 30.09 in 10.0 mi SSE 6.9 mph - 0.00 in Rain Light Rain
5:47 AM 80.6 °F 85.4 °F 73.4 °F 79% 30.09 in 10.0 mi SSE 4.6 mph - 0.00 in   Scattered Clouds
5:53 AM 81.0 °F 86.2 °F 73.9 °F 79% 30.09 in 10.0 mi SSE 4.6 mph - 0.00 in   Scattered Clouds
6:53 AM 82.0 °F 90.2 °F 77.0 °F 85% 30.10 in 10.0 mi East 3.5 mph - N/A   Mostly Cloudy
7:53 AM 82.0 °F 87.9 °F 73.9 °F 76% 30.10 in 10.0 mi ESE 5.8 mph - N/A   Scattered Clouds
8:53 AM 86.0 °F 95.1 °F 75.0 °F 70% 30.10 in 10.0 mi East 11.5 mph - N/A   Scattered Clouds
9:53 AM 87.1 °F 97.3 °F 75.9 °F 69% 30.12 in 10.0 mi East 13.8 mph - N/A   Mostly Cloudy
10:53 AM 89.1 °F 100.2 °F 75.9 °F 65% 30.12 in 10.0 mi East 15.0 mph - N/A   Mostly Cloudy
11:53 AM 89.1 °F 99.1 °F 75.0 °F 63% 30.12 in 10.0 mi East 13.8 mph - N/A   Scattered Clouds
12:53 PM 89.1 °F 99.1 °F 75.0 °F 63% 30.12 in 10.0 mi ESE 13.8 mph - N/A   Scattered Clouds
1:53 PM 89.1 °F 99.1 °F 75.0 °F 63% 30.11 in 10.0 mi ESE 13.8 mph - N/A   Scattered Clouds
2:53 PM 89.1 °F 99.1 °F 75.0 °F 63% 30.08 in 10.0 mi ESE 16.1 mph - N/A   Scattered Clouds
3:53 PM 88.0 °F 97.5 °F 75.0 °F 65% 30.07 in 10.0 mi East 16.1 mph - N/A   Scattered Clouds
4:53 PM 89.1 °F 99.1 °F 75.0 °F 63% 30.06 in 10.0 mi ESE 13.8 mph - N/A   Scattered Clouds
5:53 PM 88.0 °F 97.5 °F 75.0 °F 65% 30.06 in 10.0 mi ESE 12.7 mph - N/A   Scattered Clouds
6:53 PM 87.1 °F 94.5 °F 73.0 °F 63% 30.06 in 10.0 mi East 12.7 mph - N/A   Mostly Cloudy
7:53 PM 84.9 °F 92.1 °F 73.9 °F 69% 30.06 in 10.0 mi ESE 9.2 mph - N/A   Scattered Clouds
8:53 PM 84.9 °F 91.4 °F 73.0 °F 67% 30.08 in 10.0 mi SE 8.1 mph - N/A   Partly Cloudy
9:53 PM 84.9 °F 92.1 °F 73.9 °F 69% 30.10 in 10.0 mi ESE 9.2 mph - N/A   Scattered Clouds
10:53 PM 82.9 °F 90.2 °F 75.0 °F 77% 30.10 in 10.0 mi SSE 5.8 mph - N/A   Scattered Clouds
11:53 PM 82.0 °F 86.3 °F 71.1 °F 69% 30.10 in 10.0 mi ESE 5.8 mph - N/A   Partly Cloudy